Adrian, MI

8:50 PM EST on February 09, 2016 (GMT -0500)
Lenawee County

Weather History for KADG - March, 2013

Change the Weather History Date:

Saturday, March 9, 2013

  Actual Average (KTOL) Record (KTOL)
Temperature  
Mean Temperature 34 °F 35 °F  
Max Temperature 44 °F 44 °F 67 °F (2000)
Min Temperature 25 °F 26 °F -6 °F (1984)
Degree Days  
Heating Degree Days 30 30  
Month to date heating degree days 284  
Since 1 July heating degree days 4860  
Cooling Degree Days 0 0  
Month to date cooling degree days 0  
Year to date cooling degree days 0  
Moisture  
Dew Point 28 °F    
Average Humidity 78    
Maximum Humidity 92    
Minimum Humidity 60    
Precipitation  
Precipitation 0.00 in 0.07 in - ()
Month to date precipitation 0.68  
Year to date precipitation 4.80  
Snow  
Snow 0.00 in 0.20 in - ()
Month to date snowfall 2.2  
Since 1 July snowfall 32.7  
Snow Depth -    
Sea Level Pressure  
Sea Level Pressure 30.27 in    
Wind  
Wind Speed 4 mph (SE)    
Max Wind Speed 12 mph    
Max Gust Speed -    
Visibility 10 miles    
Events      
T = Trace of Precipitation, MM = Missing Value Source: NWS Daily Summary

Daily Weather History Graph

Daily Weather History Graph

Search for Another Location

Airport or City:

Trip Planner

Search our weather history database for the weather conditions in past years. The results will help you decide how hot, cold, wet, or windy it might be!

Date:

Astronomy

Mar. 09, 2013 Rise Set
Actual Time 6:57 AM EST 6:36 PM EST
Civil Twilight 6:30 AM EST 7:04 PM EST
Nautical Twilight 5:57 AM EST 7:36 PM EST
Astronomical Twilight 5:25 AM EST 8:08 PM EST
Moon 5:22 AM EST (3/9) 4:36 PM EST (3/9)
Length of Visible Light 12h 34m
Length of Day
11h 38m
Waning Crescent, 5% of the Moon is Illuminated
Mar 9
Waning Crescent
Mar 11
New
Mar 19
First Quarter
Mar 27
Full
Apr 3
Last Quarter

Hourly Weather History & Observations

Time (EST) Temp. Windchill Dew Point Humidity Pressure Visibility Wind Dir Wind Speed Gust Speed Precip Events Conditions
12:53 AM 30.0 °F - 25.0 °F 82% 30.43 in 10.0 mi Calm Calm - N/A   Clear
1:53 AM 30.0 °F - 25.0 °F 82% 30.43 in 10.0 mi Calm Calm - N/A   Clear
2:53 AM 28.0 °F - 25.0 °F 88% 30.41 in 10.0 mi Calm Calm - N/A   Clear
3:53 AM 26.1 °F - 24.1 °F 92% 30.38 in 9.0 mi Calm Calm - N/A   Clear
4:53 AM 26.1 °F - 23.0 °F 88% 30.38 in 9.0 mi Calm Calm - N/A   Clear
5:53 AM 25.0 °F - 23.0 °F 92% 30.39 in 7.0 mi Calm Calm - N/A   Clear
7:53 AM 28.0 °F 24.2 °F 26.1 °F 92% 30.38 in 7.0 mi ESE 3.5 mph - N/A   Clear
8:53 AM 32.0 °F 24.8 °F 27.0 °F 82% 30.38 in 10.0 mi South 8.1 mph - N/A   Clear
9:53 AM 36.0 °F 29.6 °F 28.0 °F 73% 30.37 in 10.0 mi South 8.1 mph - N/A   Clear
10:53 AM 37.0 °F 30.4 °F 28.0 °F 70% 30.35 in 10.0 mi SSE 9.2 mph - N/A   Clear
11:53 AM 39.0 °F 34.8 °F 28.9 °F 67% 30.35 in 10.0 mi South 5.8 mph - N/A   Clear
12:53 PM 39.9 °F 35.1 °F 30.0 °F 68% 30.32 in 10.0 mi South 6.9 mph - N/A   Clear
1:53 PM 42.1 °F 36.1 °F 30.9 °F 65% 30.25 in 10.0 mi South 10.4 mph - N/A   Clear
2:53 PM 44.1 °F 39.0 °F 30.9 °F 60% 30.22 in 10.0 mi South 9.2 mph - N/A   Scattered Clouds
3:53 PM 44.1 °F 38.1 °F 30.9 °F 60% 30.19 in 10.0 mi South 11.5 mph - N/A   Clear
4:53 PM 42.1 °F 37.1 °F 33.1 °F 70% 30.19 in 10.0 mi ESE 8.1 mph - N/A   Clear
5:53 PM 39.0 °F 32.3 °F 32.0 °F 76% 30.16 in 10.0 mi ESE 10.4 mph - N/A   Scattered Clouds
6:53 PM 37.0 °F 30.4 °F 30.0 °F 76% 30.14 in 10.0 mi ESE 9.2 mph - N/A   Overcast
7:53 PM 36.0 °F 29.0 °F 30.0 °F 79% 30.14 in 10.0 mi SE 9.2 mph - N/A   Overcast
8:53 PM 35.1 °F 30.1 °F 30.0 °F 82% 30.13 in 10.0 mi ESE 5.8 mph - N/A   Partly Cloudy
9:53 PM 35.1 °F 30.1 °F 30.0 °F 82% 30.11 in 10.0 mi ESE 5.8 mph - 0.00 in   Scattered Clouds
10:53 PM 34.0 °F 28.8 °F 30.0 °F 85% 30.08 in 10.0 mi East 5.8 mph - N/A   Clear
11:53 PM 34.0 °F 31.0 °F 30.9 °F 89% 30.06 in 10.0 mi East 3.5 mph - N/A   Clear